Location: McFarlands Corners
(41.4117°N, 81.3382°W)
Time: 14:07:08
(UTC+00:00)

Tiros 1 despin weight - Pass Details

Date: 19 February 2026
Orbit: 556 x 593 km, 48.2° (Epoch: 11 March)

Event Time Altitude Azimuth Distance (km) Brightness Sun altitude
Rises 01:14:46 0° 298° (WNW) 2,734 ? -25.3°
Reaches altitude 10° 01:17:01 10° 299° (WNW) 1,838 ? -25.7°
Enters shadow 01:20:10 50° 308° (NW) 715 ? -26.3°
Maximum altitude 01:21:13 81° 26° (NNE) 567 - -26.5°
Drops below altitude 10° 01:25:26 10° 116° (ESE) 1,843 - -27.3°
Sets 01:27:41 0° 117° (ESE) 2,742 - -27.7°
